Weather History for Wolf Point, MT

Change the Weather History Date:

Monday, January 9, 2012

  Actual Average Record
Temperature  
Mean Temperature 37 °F -  
Max Temperature 53 °F 23 °F 53 °F (2012)
Min Temperature 21 °F 1 °F -18 °F (2005)
Degree Days  
Heating Degree Days 28    
Cooling Degree Days 0    
Moisture  
Dew Point 26 °F    
Average Humidity 70    
Maximum Humidity 92    
Minimum Humidity 43    
Precipitation  
Precipitation 0.00 in 0.01 in 0.00 in (2015)
Month to date precipitation 0.00 0.12  
Year to date precipitation 0.00 0.12  
Sea Level Pressure  
Sea Level Pressure 30.00 in    
Wind  
Wind Speed 5 mph (WSW)    
Max Wind Speed 13 mph    
Max Gust Speed -    
Visibility 10 miles    
Events      
T = Trace of Precipitation, MM = Missing Value Source: NWS Daily Summary

Daily Weather History Graph

Daily Weather History Graph

Search for Another Location

Airport:

Trip Planner

Search our weather history database for the weather conditions in past years. The results will help you decide how hot, cold, wet, or windy it might be!

Date:

Astronomy

Jan. 09, 2012 Rise Set
Actual Time 7:51 AM MST 4:27 PM MST
Civil Twilight 7:15 AM MST 5:03 PM MST
Nautical Twilight 6:36 AM MST 5:42 PM MST
Astronomical Twilight 5:58 AM MST 6:20 PM MST
Moon 5:22 PM MST (1/9) 7:48 AM MST (1/9)
Length of Visible Light 9h 48m
Length of Day
8h 36m
Full, 100% of the Moon is Illuminated
Jan 9
Full
Jan 16
Last Quarter
Jan 23
New
Jan 30
First Quarter
Feb 7
Full

Hourly Weather History & Observations

Time (MST) Temp. Windchill Dew Point Humidity Pressure Visibility Wind Dir Wind Speed Gust Speed Precip Events Conditions
12:53 AM 28.9 °F 25.2 °F 24.1 °F 82% 30.03 in 10.0 mi SW 3.5 mph - N/A   Clear
1:53 AM 28.0 °F - 23.0 °F 81% 30.04 in 10.0 mi Calm Calm - N/A   Clear
2:53 AM 28.9 °F 21.1 °F 24.1 °F 82% 30.05 in 10.0 mi WSW 8.1 mph - N/A   Clear
3:53 AM 28.9 °F 19.8 °F 24.1 °F 82% 30.05 in 10.0 mi WSW 10.4 mph - N/A   Clear
4:53 AM 26.1 °F - 21.9 °F 84% 30.06 in 10.0 mi Calm Calm - N/A   Clear
5:53 AM 23.0 °F - 21.0 °F 92% 30.08 in 10.0 mi Calm Calm - N/A   Clear
6:53 AM 24.1 °F - 21.0 °F 88% 30.07 in 10.0 mi Calm Calm - N/A   Clear
7:53 AM 25.0 °F 16.3 °F 23.0 °F 92% 30.07 in 10.0 mi West 8.1 mph - N/A   Clear
8:53 AM 30.2 °F 26.7 °F 26.6 °F 86% 29.99 in 10.0 mi WSW 3.5 mph - N/A   Clear
9:53 AM 35.1 °F 29.3 °F 28.9 °F 78% 30.06 in 10.0 mi West 6.9 mph - N/A   Clear
10:53 AM 42.1 °F 36.6 °F 30.9 °F 65% 30.03 in 10.0 mi WSW 9.2 mph - N/A   Clear
11:53 AM 48.0 °F - 30.0 °F 50% 30.01 in 10.0 mi WSW 12.7 mph - N/A   Clear
12:53 PM 52.0 °F - 30.0 °F 43% 29.97 in 10.0 mi West 8.1 mph - N/A   Clear
1:53 PM 53.1 °F - 30.9 °F 43% 29.95 in 10.0 mi West 11.5 mph - N/A   Clear
2:53 PM 52.0 °F - 30.9 °F 45% 29.94 in 10.0 mi WSW 4.6 mph - N/A   Clear
3:53 PM 48.9 °F - 30.9 °F 50% 29.93 in 10.0 mi SW 6.9 mph - N/A   Clear
4:53 PM 44.1 °F 39.0 °F 28.0 °F 53% 29.94 in 10.0 mi SW 9.2 mph - N/A   Clear
5:53 PM 34.0 °F - 26.1 °F 73% 29.96 in 10.0 mi Calm Calm - N/A   Clear
6:53 PM 39.9 °F 37.8 °F 27.0 °F 60% 29.94 in 10.0 mi SW 3.5 mph - N/A   Clear
7:53 PM 37.0 °F - 26.1 °F 65% 29.96 in 10.0 mi Calm Calm - N/A   Clear
8:53 PM 30.9 °F - 25.0 °F 79% 29.96 in 10.0 mi Calm Calm - N/A   Clear
9:53 PM 35.1 °F 32.2 °F 25.0 °F 67% 29.94 in 10.0 mi West 3.5 mph - N/A   Clear
10:53 PM 35.1 °F 30.1 °F 26.1 °F 70% 29.93 in 10.0 mi South 5.8 mph - N/A   Clear
11:53 PM 36.0 °F 30.3 °F 26.1 °F 67% 29.92 in 10.0 mi SSW 6.9 mph - N/A   Clear